Back to catalog

STARLINK-36908

AliveCommunicationsVLEO
NORAD 67945·PAYLOAD·🇺🇸 United States

Launched Feb 24, 2026 from Vandenberg Space Force Base

Loading…

Next Passes (next 24 hours)

TLE

FreshSource: CelesTrak SupGP

Epoch: Sep 15, 2026, 03:19 UTC

1 67945C 26037P   26258.13868056 -.00041758  00000+0 -15128-2 0  2582
2 67945  43.0012 200.5588 0001356 270.0539 225.0859 15.27592822    17

Track STARLINK-36908 in real time with AllMySat

Download on the App Store